Location: Recife
(8.0585°S, 34.8848°W)
Time: 12:21:37
(UTC-03:00)

Transit 4A - Pass Details

Date: 15 April 2026
Orbit: 861 x 980 km, 66.8° (Epoch: 12 May)

Event Time Altitude Azimuth Distance (km) Brightness Sun altitude
Rises 00:32:05 0° 349° (N) 3,653 - -72.0°
Reaches altitude 10° 00:34:42 10° 353° (N) 2,702 - -71.4°
Maximum altitude 00:40:54 59° 71° (ENE) 1,095 - -69.9°
Drops below altitude 10° 00:46:59 10° 149° (SSE) 2,652 - -68.4°
Sets 00:49:31 0° 153° (SSE) 3,582 - -67.7°
